Location: Solstice Park, West Seattle
(47.5363°N, 122.3905°W)
Time: 09:30:36
(UTC-07:00)

ISS - Pass Details

Date: 13 May 2021
Orbit: 417 x 422 km, 51.6° (Epoch: 18 June)

Event Time Altitude Azimuth Distance (km) Brightness Sun altitude
Exits shadow 02:21:18 16° 299° (WNW) 1,192 -1.4 -21.8°
Maximum altitude 02:23:40 40° 4° (N) 640 -2.4 -21.7°
Drops below altitude 10° 02:26:53 10° 76° (ENE) 1,509 -0.5 -21.5°
Sets 02:29:04 0° 84° (E) 2,374 0.4 -21.4°
